Kankakee, IL

8:29 PM CST on December 08, 2019 (GMT -0600)
Greater Kankakee

Weather History for KIKK - October, 2019

Change the Weather History Date:

Wednesday, October 9, 2019

  Actual Average Record
Temperature  
Mean Temperature 58 °F -  
Max Temperature 73 °F 67 °F 89 °F (2010)
Min Temperature 44 °F 42 °F 28 °F (1987)
Degree Days  
Heating Degree Days 7    
Growing Degree Days 8 (Base 50)    
Moisture  
Dew Point 45 °F    
Average Humidity 63    
Maximum Humidity 87    
Minimum Humidity 36    
Precipitation  
Precipitation 0.03 in - - ()
Sea Level Pressure  
Sea Level Pressure 30.13 in    
Wind  
Wind Speed 5 mph (SE)    
Max Wind Speed 13 mph    
Max Gust Speed 17 mph    
Visibility 10 miles    
Events      
Averages and records for this station are not official NWS values.
T = Trace of Precipitation, MM = Missing Value Source: NWS Daily Summary

Daily Weather History Graph

Daily Weather History Graph

Search for Another Location

Airport or City:

Astronomy

Oct. 09, 2019 Rise Set
Actual Time 6:56 AM CDT 6:20 PM CDT
Civil Twilight 6:28 AM CDT 6:48 PM CDT
Nautical Twilight 5:56 AM CDT 7:19 PM CDT
Astronomical Twilight 5:24 AM CDT 7:51 PM CDT
Moon 4:54 PM CDT 2:39 AM CDT
Length of Visible Light 12h 19m
Length of Day
11h 24m
Waxing Gibbous, 85% of the Moon is Illuminated
Oct 9
Waxing Gibbous
Oct 13
Full
Oct 21
Last Quarter
Oct 27
New
Nov 4
First Quarter

Hourly Weather History & Observations

Time (CDT) Temp. Windchill Dew Point Humidity Pressure Visibility Wind Dir Wind Speed Gust Speed Precip Events Conditions
12:15 AM 48.4 °F - 41.9 °F 78% 30.15 in 10.0 mi SE 5.8 mph - N/A   Clear
12:35 AM 48.2 °F - 41.4 °F 77% 30.15 in 10.0 mi SE 5.8 mph - N/A   Clear
12:55 AM 48.6 °F - 41.2 °F 76% 30.15 in 10.0 mi SE 6.9 mph - N/A   Clear
1:15 AM 48.2 °F - 41.5 °F 78% 30.15 in 10.0 mi SE 5.8 mph - N/A   Clear
1:35 AM 48.7 °F - 41.2 °F 75% 30.16 in 10.0 mi SE 5.8 mph - N/A   Clear
1:55 AM 50.0 °F - 41.5 °F 73% 30.16 in 10.0 mi SSE 4.6 mph - N/A   Clear
2:15 AM 49.6 °F - 41.2 °F 73% 30.15 in 10.0 mi SE 4.6 mph - N/A   Clear
2:35 AM 49.5 °F - 41.2 °F 73% 30.15 in 10.0 mi SE 4.6 mph - N/A   Clear
2:55 AM 47.5 °F - 40.6 °F 77% 30.15 in 10.0 mi ESE 4.6 mph - N/A   Clear
3:15 AM 46.6 °F - 41.0 °F 81% 30.14 in 10.0 mi SE 5.8 mph - N/A   Clear
3:35 AM 46.0 °F 43.9 °F 40.3 °F 80% 30.15 in 10.0 mi SE 4.6 mph - N/A   Clear
3:55 AM 46.4 °F - 41.2 °F 82% 30.15 in 10.0 mi Calm Calm - N/A   Clear
4:15 AM 46.0 °F 44.8 °F 41.0 °F 83% 30.16 in 10.0 mi ESE 3.5 mph - N/A   Clear
4:35 AM 44.6 °F 42.2 °F 41.0 °F 87% 30.16 in 10.0 mi ESE 4.6 mph - N/A   Clear
4:55 AM 45.1 °F 43.7 °F 41.0 °F 85% 30.17 in 10.0 mi SE 3.5 mph - N/A   Clear
5:15 AM 45.5 °F 43.2 °F 40.6 °F 83% 30.17 in 10.0 mi SE 4.6 mph - N/A   Clear
5:35 AM 45.5 °F 44.2 °F 41.2 °F 85% 30.17 in 10.0 mi SE 3.5 mph - N/A   Clear
5:55 AM 46.0 °F - 41.2 °F 83% 30.17 in 10.0 mi Calm Calm - N/A   Clear
6:15 AM 45.5 °F - 41.4 °F 85% 30.18 in 10.0 mi Calm Calm - N/A   Clear
6:35 AM 44.6 °F - 41.0 °F 87% 30.18 in 10.0 mi Calm Calm - N/A   Clear
6:55 AM 45.3 °F - 41.0 °F 85% 30.18 in 10.0 mi Calm Calm - N/A   Clear
7:15 AM 45.5 °F - 41.0 °F 84% 30.19 in 10.0 mi Calm Calm - N/A   Clear
7:35 AM 46.4 °F - 41.5 °F 83% 30.19 in 10.0 mi Calm Calm - N/A   Clear
7:55 AM 48.4 °F - 43.3 °F 83% 30.19 in 10.0 mi NNE 3.5 mph - N/A   Clear
8:15 AM 50.7 °F - 44.6 °F 80% 30.20 in 10.0 mi NE 4.6 mph - N/A   Clear
8:55 AM 55.4 °F - 46.0 °F 71% 30.20 in 10.0 mi ESE 6.9 mph - N/A   Clear
9:15 AM 56.7 °F - 46.4 °F 69% 30.20 in 10.0 mi SE 6.9 mph - N/A   Clear
9:35 AM 59.2 °F - 47.3 °F 65% 30.20 in 10.0 mi SE 5.8 mph - N/A   Clear
9:55 AM 61.3 °F - 48.4 °F 62% 30.20 in 10.0 mi SE 5.8 mph - N/A   Clear
10:15 AM 63.5 °F - 48.2 °F 57% 30.20 in 10.0 mi SE 6.9 mph - N/A   Clear
10:35 AM 64.9 °F - 47.8 °F 54% 30.19 in 10.0 mi SE 6.9 mph - N/A   Clear
10:55 AM 66.6 °F - 45.9 °F 47% 30.19 in 10.0 mi SE 10.4 mph - N/A   Clear
11:15 AM 67.6 °F - 46.0 °F 46% 30.18 in 10.0 mi ESE 10.4 mph - N/A   Clear
11:35 AM 68.9 °F - 45.5 °F 43% 30.18 in 10.0 mi East 10.4 mph - N/A   Clear
11:55 AM 69.3 °F - 44.8 °F 41% 30.17 in 10.0 mi SE 8.1 mph - N/A   Clear
12:15 PM 69.6 °F - 44.2 °F 40% 30.17 in 10.0 mi ESE 10.4 mph - N/A   Clear
12:35 PM 70.3 °F - 44.4 °F 39% 30.16 in 10.0 mi ESE 9.2 mph - N/A   Clear
12:55 PM 69.8 °F - 43.3 °F 38% 30.14 in 10.0 mi SE 8.1 mph - N/A   Clear
1:15 PM 70.0 °F - 44.6 °F 40% 30.14 in 10.0 mi SSE 8.1 mph - N/A   Clear
1:35 PM 70.7 °F - 44.8 °F 39% 30.13 in 10.0 mi SE 5.8 mph - N/A   Clear
1:55 PM 71.2 °F - 44.2 °F 38% 30.12 in 10.0 mi SE 9.2 mph - N/A   Clear
2:15 PM 71.2 °F - 45.0 °F 39% 30.10 in 10.0 mi ESE 9.2 mph - N/A   Clear
2:35 PM 71.8 °F - 45.9 °F 39% 30.10 in 10.0 mi SE 8.1 mph - N/A   Clear
2:55 PM 72.0 °F - 44.8 °F 38% 30.09 in 10.0 mi ESE 12.7 mph - N/A   Clear
3:15 PM 72.0 °F - 44.6 °F 37% 30.08 in 10.0 mi SE 5.8 mph - N/A   Clear
3:35 PM 72.0 °F - 43.5 °F 36% 30.08 in 10.0 mi SSE 11.5 mph 16.1 mph N/A   Clear
3:55 PM 72.7 °F - 44.4 °F 36% 30.07 in - SE 11.5 mph 17.3 mph 0.03 in   Clear
4:15 PM 72.1 °F - 45.9 °F 39% 30.07 in 10.0 mi SE 8.1 mph - N/A   Clear
4:35 PM 70.9 °F - 46.8 °F 42% 30.08 in 10.0 mi SE 8.1 mph - N/A   Clear
4:55 PM 70.2 °F - 48.2 °F 46% 30.08 in 10.0 mi SE 5.8 mph - N/A   Clear
5:15 PM 70.3 °F - 48.7 °F 46% 30.08 in 10.0 mi SE 5.8 mph - N/A   Clear
5:35 PM 67.8 °F - 48.4 °F 50% 30.08 in 10.0 mi ESE 4.6 mph - N/A   Clear
5:55 PM 66.2 °F - 49.3 °F 54% 30.08 in 10.0 mi East 5.8 mph - N/A   Clear
6:15 PM 64.6 °F - 49.1 °F 57% 30.08 in 10.0 mi ESE 4.6 mph - N/A   Clear
6:35 PM 63.7 °F - 48.7 °F 58% 30.09 in 10.0 mi ESE 3.5 mph - N/A   Clear
6:55 PM 61.2 °F - 48.9 °F 64% 30.09 in 10.0 mi ESE 5.8 mph - N/A   Clear
7:15 PM 60.8 °F - 48.6 °F 64% 30.08 in 10.0 mi ESE 5.8 mph - N/A   Clear
7:35 PM 61.7 °F - 48.6 °F 62% 30.08 in 10.0 mi ESE 4.6 mph - N/A   Clear
7:55 PM 63.9 °F - 47.5 °F 55% 30.08 in 10.0 mi ESE 6.9 mph - N/A   Clear
8:15 PM 61.0 °F - 47.8 °F 62% 30.09 in 10.0 mi SE 4.6 mph - N/A   Clear
8:35 PM 59.2 °F - 48.2 °F 67% 30.10 in 10.0 mi SE 4.6 mph - N/A   Clear
8:55 PM 59.2 °F - 47.8 °F 66% 30.10 in 10.0 mi ESE 5.8 mph - N/A   Clear
9:15 PM 57.2 °F - 47.8 °F 71% 30.09 in 10.0 mi ESE 4.6 mph - N/A   Clear
9:35 PM 58.8 °F - 47.3 °F 66% 30.10 in 10.0 mi SSE 4.6 mph - N/A   Clear
9:55 PM 59.7 °F - 47.1 °F 63% 30.10 in 10.0 mi ESE 4.6 mph - N/A   Clear
10:15 PM 57.6 °F - 47.1 °F 68% 30.09 in 10.0 mi SE 5.8 mph - N/A   Clear
10:35 PM 58.3 °F - 46.4 °F 65% 30.09 in 10.0 mi SE 4.6 mph - N/A   Clear
10:55 PM 56.8 °F - 46.4 °F 68% 30.10 in 10.0 mi SSE 4.6 mph - N/A   Clear
11:15 PM 55.8 °F - 46.8 °F 72% 30.09 in 10.0 mi ESE 6.9 mph - N/A   Clear
11:35 PM 54.7 °F - 46.9 °F 75% 30.08 in 10.0 mi ESE 6.9 mph - N/A   Clear
11:55 PM 56.7 °F - 46.8 °F 69% 30.09 in 10.0 mi SSE 4.6 mph - N/A   Clear